Time,TemperatureF,DewpointF,PressureIn,WindDirection,WindDirectionDegrees,WindSpeedMPH,WindSpeedGustMPH,Humidity,HourlyPrecipIn,Conditions,Clouds,dailyrainin,SoftwareType,DateUTC
2013-04-17 00:03:00,56.0,-99.9,30.17,SSE,168,5.0,6.0,-999,-99.99,,,-99.99,,2013-04-17 04:03:00,
2013-04-17 00:13:00,56.0,-99.9,30.17,South,176,5.0,7.0,-999,-99.99,,,-99.99,,2013-04-17 04:13:00,
2013-04-17 00:23:00,56.0,-99.9,30.17,South,173,5.0,8.0,-999,-99.99,,,-99.99,,2013-04-17 04:23:00,
2013-04-17 00:33:00,58.0,-99.9,30.17,South,189,5.0,9.0,-999,-99.99,,,-99.99,,2013-04-17 04:33:00,
2013-04-17 00:43:00,58.0,-99.9,30.18,South,190,6.0,8.0,-999,-99.99,,,-99.99,,2013-04-17 04:43:00,
2013-04-17 00:53:00,58.0,-99.9,30.18,South,180,6.0,8.0,-999,-99.99,,,-99.99,,2013-04-17 04:53:00,
2013-04-17 01:03:00,58.0,-99.9,30.17,South,181,6.0,8.0,-999,-99.99,,,-99.99,,2013-04-17 05:03:00,
2013-04-17 01:12:00,57.0,-99.9,30.17,South,179,7.0,9.0,-999,-99.99,,,-99.99,,2013-04-17 05:12:00,
2013-04-17 01:22:00,58.0,-99.9,30.17,South,189,7.0,9.0,-999,-99.99,,,-99.99,,2013-04-17 05:22:00,
2013-04-17 01:32:00,59.0,-99.9,30.17,SSW,202,9.0,13.0,-999,-99.99,,,-99.99,,2013-04-17 05:32:00,
2013-04-17 01:43:00,59.0,-99.9,30.17,South,191,9.0,13.0,-999,-99.99,,,-99.99,,2013-04-17 05:43:00,
2013-04-17 01:52:00,59.0,-99.9,30.17,SSW,196,8.0,11.0,-999,-99.99,,,-99.99,,2013-04-17 05:52:00,
2013-04-17 02:02:00,59.0,-99.9,30.17,SSW,193,8.0,13.0,-999,-99.99,,,-99.99,,2013-04-17 06:02:00,
2013-04-17 02:12:00,59.0,-99.9,30.16,SSW,198,9.0,13.0,-999,-99.99,,,-99.99,,2013-04-17 06:12:00,
2013-04-17 02:22:00,59.0,-99.9,30.16,SSW,199,10.0,14.0,-999,-99.99,,,-99.99,,2013-04-17 06:22:00,
2013-04-17 02:32:00,59.0,-99.9,30.15,SSW,192,10.0,13.0,-999,-99.99,,,-99.99,,2013-04-17 06:32:00,
2013-04-17 02:42:00,59.0,-99.9,30.15,SSW,205,11.0,14.0,-999,-99.99,,,-99.99,,2013-04-17 06:42:00,
2013-04-17 02:52:00,59.0,-99.9,30.16,SSW,207,10.0,14.0,-999,-99.99,,,-99.99,,2013-04-17 06:52:00,
2013-04-17 03:02:00,59.0,-99.9,30.17,SSW,212,9.0,13.0,-999,-99.99,,,-99.99,,2013-04-17 07:02:00,
2013-04-17 03:12:00,59.0,-99.9,30.17,SSW,212,9.0,11.0,-999,-99.99,,,-99.99,,2013-04-17 07:12:00,
2013-04-17 03:22:00,58.0,-99.9,30.16,SSW,211,9.0,11.0,-999,-99.99,,,-99.99,,2013-04-17 07:22:00,
2013-04-17 03:32:00,58.0,-99.9,30.16,SSW,208,7.0,14.0,-999,-99.99,,,-99.99,,2013-04-17 07:32:00,
2013-04-17 03:42:00,58.0,-99.9,30.15,SSW,201,7.0,10.0,-999,-99.99,,,-99.99,,2013-04-17 07:42:00,
2013-04-17 03:52:00,58.0,-99.9,30.15,SSW,198,8.0,10.0,-999,-99.99,,,-99.99,,2013-04-17 07:52:00,
2013-04-17 04:02:00,58.0,-99.9,30.14,SSW,200,8.0,10.0,-999,-99.99,,,-99.99,,2013-04-17 08:02:00,
2013-04-17 04:12:00,58.0,-99.9,30.14,SSW,197,9.0,12.0,-999,-99.99,,,-99.99,,2013-04-17 08:12:00,
2013-04-17 04:22:00,58.0,-99.9,30.13,SSW,196,9.0,11.0,-999,-99.99,,,-99.99,,2013-04-17 08:22:00,
2013-04-17 04:33:00,58.0,-99.9,30.13,SSW,198,9.0,13.0,-999,-99.99,,,-99.99,,2013-04-17 08:33:00,
2013-04-17 04:42:00,58.0,-99.9,30.13,SSW,193,7.0,11.0,-999,-99.99,,,-99.99,,2013-04-17 08:42:00,
2013-04-17 04:52:00,58.0,-99.9,30.12,South,188,8.0,10.0,-999,-99.99,,,-99.99,,2013-04-17 08:52:00,
2013-04-17 05:02:00,58.0,-99.9,30.12,South,186,9.0,13.0,-999,-99.99,,,-99.99,,2013-04-17 09:02:00,
2013-04-17 05:12:00,57.0,-99.9,30.11,South,190,7.0,11.0,-999,-99.99,,,-99.99,,2013-04-17 09:12:00,
2013-04-17 05:22:00,56.0,-99.9,30.11,South,184,8.0,11.0,-999,-99.99,,,-99.99,,2013-04-17 09:22:00,
2013-04-17 05:33:00,56.0,-99.9,30.11,SSW,195,8.0,13.0,-999,-99.99,,,-99.99,,2013-04-17 09:33:00,
2013-04-17 05:43:00,56.0,-99.9,30.11,South,187,6.0,9.0,-999,-99.99,,,-99.99,,2013-04-17 09:43:00,
2013-04-17 05:53:00,56.0,-99.9,30.11,South,191,4.0,7.0,-999,-99.99,,,-99.99,,2013-04-17 09:53:00,
2013-04-17 06:03:00,55.0,-99.9,30.11,South,176,5.0,7.0,-999,-99.99,,,-99.99,,2013-04-17 10:03:00,
2013-04-17 06:13:00,55.0,-99.9,30.11,South,172,5.0,7.0,-999,-99.99,,,-99.99,,2013-04-17 10:13:00,
2013-04-17 06:23:00,55.0,-99.9,30.11,SSE,161,4.0,5.0,-999,-99.99,,,-99.99,,2013-04-17 10:23:00,
2013-04-17 06:33:00,55.0,-99.9,30.12,SSW,201,3.0,6.0,-999,-99.99,,,-99.99,,2013-04-17 10:33:00,
2013-04-17 06:43:00,56.0,-99.9,30.12,SSW,197,4.0,6.0,-999,-99.99,,,-99.99,,2013-04-17 10:43:00,
2013-04-17 06:53:00,56.0,-99.9,30.13,WSW,243,4.0,5.0,-999,-99.99,,,-99.99,,2013-04-17 10:53:00,
2013-04-17 07:02:00,57.0,-99.9,30.13,SW,230,4.0,6.0,-999,-99.99,,,-99.99,,2013-04-17 11:02:00,
2013-04-17 07:12:00,57.0,-99.9,30.14,WSW,249,6.0,7.0,-999,-99.99,,,-99.99,,2013-04-17 11:12:00,
2013-04-17 07:22:00,56.0,-99.9,30.15,WSW,256,5.0,6.0,-999,-99.99,,,-99.99,,2013-04-17 11:22:00,
2013-04-17 07:32:00,56.0,-99.9,30.15,West,264,4.0,5.0,-999,-99.99,,,-99.99,,2013-04-17 11:32:00,
2013-04-17 07:42:00,56.0,-99.9,30.16,WSW,257,4.0,5.0,-999,-99.99,,,-99.99,,2013-04-17 11:42:00,
2013-04-17 07:52:00,56.0,-99.9,30.16,West,276,4.0,4.0,-999,-99.99,,,-99.99,,2013-04-17 11:52:00,
2013-04-17 08:03:00,56.0,-99.9,30.16,WSW,258,4.0,5.0,-999,-99.99,,,-99.99,,2013-04-17 12:03:00,
2013-04-17 08:12:00,56.0,-99.9,30.16,West,267,3.0,4.0,-999,-99.99,,,-99.99,,2013-04-17 12:12:00,
2013-04-17 08:22:00,56.0,-99.9,30.16,WSW,252,3.0,4.0,-999,-99.99,,,-99.99,,2013-04-17 12:22:00,
2013-04-17 08:32:00,57.0,-99.9,30.16,West,259,3.0,3.0,-999,-99.99,,,-99.99,,2013-04-17 12:32:00,
2013-04-17 08:42:00,57.0,-99.9,30.16,West,266,3.0,4.0,-999,-99.99,,,-99.99,,2013-04-17 12:42:00,
2013-04-17 08:52:00,57.0,-99.9,30.17,West,273,3.0,4.0,-999,-99.99,,,-99.99,,2013-04-17 12:52:00,
2013-04-17 09:02:00,58.0,-99.9,30.17,NW,305,3.0,4.0,-999,-99.99,,,-99.99,,2013-04-17 13:02:00,
2013-04-17 09:12:00,58.0,-99.9,30.17,WNW,298,4.0,5.0,-999,-99.99,,,-99.99,,2013-04-17 13:12:00,
2013-04-17 09:22:00,59.0,-99.9,30.17,NW,316,3.0,5.0,-999,-99.99,,,-99.99,,2013-04-17 13:22:00,
2013-04-17 09:32:00,59.0,-99.9,30.17,NW,304,3.0,4.0,-999,-99.99,,,-99.99,,2013-04-17 13:32:00,
2013-04-17 09:42:00,60.0,-99.9,30.17,NNW,332,6.0,11.0,-999,-99.99,,,-99.99,,2013-04-17 13:42:00,
2013-04-17 09:52:00,62.0,-99.9,30.17,North,359,5.0,8.0,-999,-99.99,,,-99.99,,2013-04-17 13:52:00,
2013-04-17 10:02:00,62.0,-99.9,30.17,North,357,5.0,7.0,-999,-99.99,,,-99.99,,2013-04-17 14:02:00,
2013-04-17 10:12:00,62.0,-99.9,30.17,North,356,6.0,9.0,-999,-99.99,,,-99.99,,2013-04-17 14:12:00,
2013-04-17 10:22:00,63.0,-99.9,30.17,North,354,6.0,8.0,-999,-99.99,,,-99.99,,2013-04-17 14:22:00,
2013-04-17 10:32:00,63.0,-99.9,30.17,North,2,7.0,10.0,-999,-99.99,,,-99.99,,2013-04-17 14:32:00,
2013-04-17 10:43:00,63.0,-99.9,30.17,North,357,8.0,11.0,-999,-99.99,,,-99.99,,2013-04-17 14:43:00,
2013-04-17 10:52:00,63.0,-99.9,30.17,North,357,8.0,12.0,-999,-99.99,,,-99.99,,2013-04-17 14:52:00,
2013-04-17 11:02:00,63.0,-99.9,30.17,North,357,7.0,10.0,-999,-99.99,,,-99.99,,2013-04-17 15:02:00,
2013-04-17 11:12:00,63.0,-99.9,30.17,North,359,7.0,10.0,-999,-99.99,,,-99.99,,2013-04-17 15:12:00,
2013-04-17 11:22:00,63.0,-99.9,30.17,North,354,6.0,9.0,-999,-99.99,,,-99.99,,2013-04-17 15:22:00,
2013-04-17 11:33:00,64.0,-99.9,30.17,North,349,6.0,9.0,-999,-99.99,,,-99.99,,2013-04-17 15:33:00,
2013-04-17 11:43:00,65.0,-99.9,30.17,NNW,335,7.0,9.0,-999,-99.99,,,-99.99,,2013-04-17 15:43:00,
2013-04-17 11:53:00,65.0,-99.9,30.17,NNW,343,6.0,9.0,-999,-99.99,,,-99.99,,2013-04-17 15:53:00,
2013-04-17 12:03:00,64.0,-99.9,30.16,NNW,344,6.0,9.0,-999,-99.99,,,-99.99,,2013-04-17 16:03:00,
2013-04-17 12:13:00,65.0,-99.9,30.16,NNW,341,6.0,8.0,-999,-99.99,,,-99.99,,2013-04-17 16:13:00,
2013-04-17 12:23:00,65.0,-99.9,30.17,NNW,332,7.0,8.0,-999,-99.99,,,-99.99,,2013-04-17 16:23:00,
2013-04-17 12:32:00,66.0,-99.9,30.17,NNW,333,5.0,7.0,-999,-99.99,,,-99.99,,2013-04-17 16:32:00,
2013-04-17 12:42:00,65.0,-99.9,30.17,SE,138,5.0,9.0,-999,-99.99,,,-99.99,,2013-04-17 16:42:00,
2013-04-17 12:52:00,64.0,-99.9,30.17,East,99,13.0,19.0,-999,-99.99,,,-99.99,,2013-04-17 16:52:00,
2013-04-17 13:02:00,61.0,-99.9,30.17,East,91,12.0,24.0,-999,-99.99,,,-99.99,,2013-04-17 17:02:00,
2013-04-17 13:13:00,58.0,-99.9,30.18,ESE,111,12.0,22.0,-999,-99.99,,,-99.99,,2013-04-17 17:13:00,
2013-04-17 13:22:00,57.0,-99.9,30.19,ESE,104,13.0,23.0,-999,-99.99,,,-99.99,,2013-04-17 17:22:00,
2013-04-17 13:33:00,58.0,-99.9,30.19,East,96,11.0,21.0,-999,-99.99,,,-99.99,,2013-04-17 17:33:00,
2013-04-17 13:42:00,58.0,-99.9,30.19,ESE,108,11.0,20.0,-999,-99.99,,,-99.99,,2013-04-17 17:42:00,
2013-04-17 13:52:00,57.0,-99.9,30.19,East,96,14.0,21.0,-999,-99.99,,,-99.99,,2013-04-17 17:52:00,
2013-04-17 14:02:00,57.0,-99.9,30.19,ESE,108,10.0,17.0,-999,-99.99,,,-99.99,,2013-04-17 18:02:00,
2013-04-17 14:12:00,56.0,-99.9,30.20,East,99,15.0,19.0,-999,-99.99,,,-99.99,,2013-04-17 18:12:00,
2013-04-17 14:22:00,57.0,-99.9,30.20,ESE,110,8.0,12.0,-999,-99.99,,,-99.99,,2013-04-17 18:22:00,
2013-04-17 14:33:00,57.0,-99.9,30.20,ESE,103,7.0,13.0,-999,-99.99,,,-99.99,,2013-04-17 18:33:00,
2013-04-17 14:42:00,57.0,-99.9,30.20,ESE,118,9.0,15.0,-999,-99.99,,,-99.99,,2013-04-17 18:42:00,
2013-04-17 14:52:00,56.0,-99.9,30.20,ESE,105,7.0,13.0,-999,-99.99,,,-99.99,,2013-04-17 18:52:00,
2013-04-17 15:03:00,56.0,-99.9,30.20,East,98,13.0,17.0,-999,-99.99,,,-99.99,,2013-04-17 19:03:00,
2013-04-17 15:12:00,56.0,-99.9,30.19,East,100,14.0,20.0,-999,-99.99,,,-99.99,,2013-04-17 19:12:00,
2013-04-17 15:22:00,57.0,-99.9,30.19,East,93,12.0,19.0,-999,-99.99,,,-99.99,,2013-04-17 19:22:00,
2013-04-17 15:32:00,56.0,-99.9,30.19,East,94,12.0,19.0,-999,-99.99,,,-99.99,,2013-04-17 19:32:00,
2013-04-17 15:42:00,57.0,-99.9,30.19,East,97,11.0,19.0,-999,-99.99,,,-99.99,,2013-04-17 19:42:00,
2013-04-17 15:52:00,56.0,-99.9,30.19,East,92,8.0,13.0,-999,-99.99,,,-99.99,,2013-04-17 19:52:00,
2013-04-17 16:03:00,57.0,-99.9,30.19,East,98,9.0,13.0,-999,-99.99,,,-99.99,,2013-04-17 20:03:00,
2013-04-17 16:12:00,57.0,-99.9,30.19,East,100,11.0,18.0,-999,-99.99,,,-99.99,,2013-04-17 20:12:00,
2013-04-17 16:22:00,56.0,-99.9,30.19,East,100,10.0,16.0,-999,-99.99,,,-99.99,,2013-04-17 20:22:00,
2013-04-17 16:33:00,57.0,-99.9,30.19,East,93,11.0,18.0,-999,-99.99,,,-99.99,,2013-04-17 20:33:00,
2013-04-17 16:42:00,57.0,-99.9,30.20,East,88,8.0,13.0,-999,-99.99,,,-99.99,,2013-04-17 20:42:00,
2013-04-17 16:53:00,58.0,-99.9,30.20,ESE,106,6.0,12.0,-999,-99.99,,,-99.99,,2013-04-17 20:53:00,
2013-04-17 17:03:00,58.0,-99.9,30.20,East,94,9.0,16.0,-999,-99.99,,,-99.99,,2013-04-17 21:03:00,
2013-04-17 17:13:00,58.0,-99.9,30.19,SE,124,9.0,13.0,-999,-99.99,,,-99.99,,2013-04-17 21:13:00,
2013-04-17 17:22:00,57.0,-99.9,30.19,SE,131,10.0,15.0,-999,-99.99,,,-99.99,,2013-04-17 21:22:00,
2013-04-17 17:33:00,56.0,-99.9,30.19,ESE,113,11.0,13.0,-999,-99.99,,,-99.99,,2013-04-17 21:33:00,
2013-04-17 17:43:00,56.0,-99.9,30.19,ESE,121,13.0,16.0,-999,-99.99,,,-99.99,,2013-04-17 21:43:00,
2013-04-17 17:53:00,55.0,-99.9,30.20,ESE,112,10.0,15.0,-999,-99.99,,,-99.99,,2013-04-17 21:53:00,
2013-04-17 18:02:00,55.0,-99.9,30.20,ESE,114,9.0,15.0,-999,-99.99,,,-99.99,,2013-04-17 22:02:00,
2013-04-17 18:13:00,55.0,-99.9,30.20,ESE,112,7.0,14.0,-999,-99.99,,,-99.99,,2013-04-17 22:13:00,
2013-04-17 18:23:00,55.0,-99.9,30.20,ESE,114,8.0,14.0,-999,-99.99,,,-99.99,,2013-04-17 22:23:00,
2013-04-17 18:33:00,55.0,-99.9,30.20,East,100,7.0,13.0,-999,-99.99,,,-99.99,,2013-04-17 22:33:00,
2013-04-17 18:43:00,55.0,-99.9,30.21,ESE,112,7.0,12.0,-999,-99.99,,,-99.99,,2013-04-17 22:43:00,
2013-04-17 18:53:00,55.0,-99.9,30.21,ESE,115,7.0,10.0,-999,-99.99,,,-99.99,,2013-04-17 22:53:00,
2013-04-17 19:02:00,55.0,-99.9,30.21,ESE,114,11.0,13.0,-999,-99.99,,,-99.99,,2013-04-17 23:02:00,
2013-04-17 19:12:00,55.0,-99.9,30.20,ESE,118,9.0,13.0,-999,-99.99,,,-99.99,,2013-04-17 23:12:00,
2013-04-17 19:22:00,55.0,-99.9,30.20,East,91,8.0,12.0,-999,-99.99,,,-99.99,,2013-04-17 23:22:00,
2013-04-17 19:32:00,55.0,-99.9,30.21,East,97,5.0,8.0,-999,-99.99,,,-99.99,,2013-04-17 23:32:00,
2013-04-17 19:42:00,54.0,-99.9,30.21,East,97,4.0,9.0,-999,-99.99,,,-99.99,,2013-04-17 23:42:00,
2013-04-17 19:52:00,54.0,-99.9,30.21,East,89,7.0,12.0,-999,-99.99,,,-99.99,,2013-04-17 23:52:00,
2013-04-17 20:02:00,53.0,-99.9,30.21,ESE,113,9.0,12.0,-999,-99.99,,,-99.99,,2013-04-18 00:02:00,
2013-04-17 20:12:00,53.0,-99.9,30.21,ESE,116,6.0,11.0,-999,-99.99,,,-99.99,,2013-04-18 00:12:00,
2013-04-17 20:22:00,53.0,-99.9,30.21,ESE,121,10.0,13.0,-999,-99.99,,,-99.99,,2013-04-18 00:22:00,
2013-04-17 20:32:00,53.0,-99.9,30.22,ESE,115,8.0,11.0,-999,-99.99,,,-99.99,,2013-04-18 00:32:00,
2013-04-17 20:43:00,52.0,-99.9,30.22,ESE,118,10.0,12.0,-999,-99.99,,,-99.99,,2013-04-18 00:43:00,
2013-04-17 20:52:00,52.0,-99.9,30.23,ESE,115,8.0,14.0,-999,-99.99,,,-99.99,,2013-04-18 00:52:00,
2013-04-17 21:02:00,52.0,-99.9,30.23,ESE,116,9.0,13.0,-999,-99.99,,,-99.99,,2013-04-18 01:02:00,
2013-04-17 21:12:00,52.0,-99.9,30.23,ESE,115,9.0,13.0,-999,-99.99,,,-99.99,,2013-04-18 01:12:00,
2013-04-17 21:22:00,52.0,-99.9,30.23,ESE,113,9.0,14.0,-999,-99.99,,,-99.99,,2013-04-18 01:22:00,
2013-04-17 21:32:00,52.0,-99.9,30.24,ESE,120,9.0,12.0,-999,-99.99,,,-99.99,,2013-04-18 01:32:00,
2013-04-17 21:42:00,52.0,-99.9,30.24,ESE,112,5.0,9.0,-999,-99.99,,,-99.99,,2013-04-18 01:42:00,
2013-04-17 21:52:00,52.0,-99.9,30.24,ESE,110,5.0,9.0,-999,-99.99,,,-99.99,,2013-04-18 01:52:00,
2013-04-17 22:02:00,52.0,-99.9,30.25,ESE,120,7.0,9.0,-999,-99.99,,,-99.99,,2013-04-18 02:02:00,
2013-04-17 22:12:00,53.0,-99.9,30.25,ESE,118,8.0,9.0,-999,-99.99,,,-99.99,,2013-04-18 02:12:00,
2013-04-17 22:22:00,53.0,-99.9,30.25,ESE,115,7.0,10.0,-999,-99.99,,,-99.99,,2013-04-18 02:22:00,
2013-04-17 22:32:00,53.0,-99.9,30.25,ESE,118,9.0,11.0,-999,-99.99,,,-99.99,,2013-04-18 02:32:00,
2013-04-17 22:42:00,53.0,-99.9,30.25,ESE,118,9.0,11.0,-999,-99.99,,,-99.99,,2013-04-18 02:42:00,
2013-04-17 22:52:00,53.0,-99.9,30.25,ESE,118,9.0,11.0,-999,-99.99,,,-99.99,,2013-04-18 02:52:00,
2013-04-17 23:02:00,53.0,-99.9,30.25,ESE,103,4.0,6.0,-999,-99.99,,,-99.99,,2013-04-18 03:02:00,
2013-04-17 23:12:00,53.0,-99.9,30.25,East,97,5.0,8.0,-999,-99.99,,,-99.99,,2013-04-18 03:12:00,
2013-04-17 23:22:00,53.0,-99.9,30.25,ESE,118,8.0,11.0,-999,-99.99,,,-99.99,,2013-04-18 03:22:00,
2013-04-17 23:33:00,53.0,-99.9,30.24,ESE,117,5.0,9.0,-999,-99.99,,,-99.99,,2013-04-18 03:33:00,
2013-04-17 23:43:00,53.0,-99.9,30.25,ESE,104,4.0,10.0,-999,-99.99,,,-99.99,,2013-04-18 03:43:00,
2013-04-17 23:53:00,53.0,-99.9,30.25,ESE,102,5.0,9.0,-999,-99.99,,,-99.99,,2013-04-18 03:53:00,